Regional Weather Roundup
Issued by NWS Grand Forks, ND

Home | Current Version | Previous Version | Graphics & Text | Print | Product List | Glossary On
Versions: 1 2 3 4 5 6 7 8 9 10 11 12 13 14 15 16 17 18 19 20 21 22 23 24 25 26 27 28 29 30 31 32 33 34 35 36 37 38 39 40 41 42 43 44 45 46 47 48 49 50
000
ASUS43 KFGF 241831
RWRFGF
PRAIRIE TO PINES  WEATHER ROUNDUP
NATIONAL WEATHER SERVICE EASTERN NORTH DAKOTA/GRAND FORKS ND
100 PM CDT SAT SEP 24 2016

 **SATELLITE DATA USED TO AUGMENT SKY COVER AT AUTOMATED STATIONS**
 *****  WEATHER ACROSS EASTERN NORTH DAKOTA  *****

CITY           SKY/WX    TMP DP  RH WIND       PRES   REMARKS
GRAND FORKS    CLOUDY    74  66  76 SE16      29.84F
6HR MIN TEMP:  63; 6HR MAX TEMP:  74;

GRAND FRKS AFB CLOUDY    72  67  84 SE12G18   29.84F
DEVILS LAKE    CLOUDY    71  66  84 SE13      29.80F
6HR MIN TEMP:  60; 6HR MAX TEMP:  71;

FARGO          MOSUNNY   79  66  64 S22G33    29.85F
WAHPETON ARPT  PTCLDY    77  63  61 SE22G28   29.87F
$$

 ***** WEATHER ACROSS CENTRAL AND WESTERN NORTH DAKOTA  *****

CITY           SKY/WX    TMP DP  RH WIND       PRES   REMARKS
BISMARCK       MOSUNNY   76  64  66 SE22      29.70F
6HR MIN TEMP:  60; 6HR MAX TEMP:  76;

MINOT          PTSUNNY   74  64  71 SE14      29.70F
6HR MIN TEMP:  60; 6HR MAX TEMP:  74; 6HR PCP:  0.01;

JAMESTOWN      CLOUDY    73  66  78 SE14      29.79F
6HR MIN TEMP:  65; 6HR MAX TEMP:  77;

MINOT AFB      CLOUDY    72  66  83 SE8       29.70F
GARRISON         N/A     72  65  78 SE13      29.70F
WILLISTON      CLOUDY    57  55  93 N17G25    29.72F FOG
6HR MIN TEMP:  55; 6HR MAX TEMP:  58; 6HR PCP:  0.01;

DICKINSON      CLOUDY    67  62  84 S15       29.67F
6HR MIN TEMP:  56; 6HR MAX TEMP:  64; 6HR PCP:  0.01;

HETTINGER      MOSUNNY   65  53  65 S21G26    29.73R
6HR MIN TEMP:  58; 6HR MAX TEMP:  66;

$$

 *****  OTHER AIRPORT OBSERVATIONS IN OUR AREA  *****

CITY           SKY/WX    TMP DP  RH WIND       PRES   REMARKS
WALHALLA       FAIR      64  64 100 SE12      29.83F FOG
GRAFTON AIRPOR CLOUDY    72  68  88 SE16G23   29.85F
VALLEY CITY AR CLOUDY    75  73  94 SE16G26   29.83F
CANDO          CLOUDY    70  70 100 SE12G17   29.81F
CAVALIER APRT  CLOUDY    66  64  94 SE10G16   29.84F
GWINNER        CLOUDY    79  68  69 SE15G23   29.83F
SHEYENNE NWR     N/A     78  67  69 S21       29.95S
ROLLA          MOCLDY    68  68 100 SE18G28   29.80F
 ***** THE ABOVE OBSERVATIONS ARE NON NWS ARE NOT QUALITY
       CONTROLLED AND MAY MIS-REPORT RAIN FOR SNOW...
$$

  *****  WEATHER ACROSS NORTHERN MINNESOTA  *****

CITY           SKY/WX    TMP DP  RH WIND       PRES   REMARKS
FLAG ISLAND    CLOUDY    59  57  94 SE7       29.97F
WARROAD        CLOUDY    64  61  88 SE12      29.96F
ROSEAU         CLOUDY    68  63  83 SE10      29.93F
HALLOCK        CLOUDY    72  66  83 S14G21    29.86F
THF RVR FALLS  CLOUDY    73  65  75 SE17      29.91F
6HR MIN TEMP:  60; 6HR MAX TEMP:  74;

BAUDETTE       CLOUDY    63  60  90 SE12      30.00F
6HR MIN TEMP:  54; 6HR MAX TEMP:  63;

WASKISH        CLOUDY    64  61  88 SE9       30.01S
CROOKSTON      PTSUNNY   75  66  73 S22       29.87F
STEPHEN NDAWN    N/A     73  66  78 S12         N/A
GREENBUSH NDAW   N/A     73  66  78 SE15        N/A
$$
  *****  WEATHER ACROSS CENTRAL AND WEST MINNESOTA  *****

CITY           SKY/WX    TMP DP  RH WIND       PRES   REMARKS
FOSSTON        MOSUNNY   72  63  73 SE17G23   29.94S
BEMIDJI        CLOUDY    65  61  88 SE17      30.00F
PARK RAPIDS    CLOUDY    65  61  87 SE16      30.00F
6HR MIN TEMP:  62; 6HR MAX TEMP:  65;

ELBOW LAKE     FAIR      73  65  75 SE20G28   29.91F
WADENA         CLOUDY    64  63  94 SE17      29.99F
DETROIT LAKES  CLOUDY    68  63  83 SE17      29.94F
MOORHEAD       MOSUNNY   79  64  61 SE23G31   29.86F
FERGUS FALLS   SUNNY     75  64  69 SE18G30   29.90F
MORRIS MN      MOSUNNY   75  66  73 SE21G29   29.89F
STAPLES        CLOUDY    63  61  94 SE9G17    30.01F FOG
$$
  *****  WEATHER ELSEWHERE ACROSS MINNESOTA  *****

CITY           SKY/WX    TMP DP  RH WIND       PRES   REMARKS
DULUTH         CLOUDY    59  58  96 E13       30.12F FOG
6HR MIN TEMP:  54; 6HR MAX TEMP:  58; 6HR PCP:  0.02;

INTRNTL FALLS  CLOUDY    64  57  78 S7        30.06S
6HR MIN TEMP:  54; 6HR MAX TEMP:  64;

ELY            CLOUDY    64  55  72 SE13G18   30.13S
CLOQUET        CLOUDY    59  57  94 E7        30.11F FOG
WHEATON        MOSUNNY   79  70  73 SE16      29.88F
BRAINERD       CLOUDY    63  60  90 SE10G17   30.05F
6HR MIN TEMP:  60; 6HR MAX TEMP:  63;

HIBBING        CLOUDY    60  57  89 SE13      30.11S
6HR MIN TEMP:  56; 6HR MAX TEMP:  60;

ALEXANDRIA     CLOUDY    68  65  90 SE17      29.99F
6HR MIN TEMP:  63; 6HR MAX TEMP:  68;

SAINT CLOUD    CLOUDY    64  64 100 SE14G23   30.04F
6HR MIN TEMP:  62; 6HR MAX TEMP:  64;

MINNEAPOLIS    CLOUDY    68  63  84 SE13      30.07F
6HR MIN TEMP:  63; 6HR MAX TEMP:  68;

$$

  *****  WEATHER ACROSS SOUTH DAKOTA  *****

CITY           SKY/WX    TMP DP  RH WIND       PRES   REMARKS
SIOUX FALLS    PTSUNNY   80  70  71 SE18      29.91S
6HR MIN TEMP:  69; 6HR MAX TEMP:  80;

BROOKINGS      CLOUDY    76  67  73 S20       29.90S
WATERTOWN      CLOUDY    76  67  73 S20G30    29.88F
6HR MIN TEMP:  68; 6HR MAX TEMP:  76;

HURON          CLOUDY    78  66  66 S18G25    29.82F
6HR MIN TEMP:  68; 6HR MAX TEMP:  78;

SISSETON         N/A     78  67  68 S20G26    29.85F
ABERDEEN       CLOUDY    75  65  70 S13G24    29.82R
6HR MIN TEMP:  70; 6HR MAX TEMP:  77;

MITCHELL       PTSUNNY   76  69  79 S16G23    29.86R
PIERRE         SUNNY     72  48  42 SW14      29.81R
6HR MIN TEMP:  60; 6HR MAX TEMP:  72; 6HR PCP: TRACE;

MOBRIDGE       SUNNY     74  57  55 S17G24    29.74R
RAPID CITY     SUNNY     65  44  46 SW13      29.82S
6HR MIN TEMP:  53; 6HR MAX TEMP:  65;

$$

  *****  SOME WEATHER IN NEARBY STATES *****

CITY           SKY/WX    TMP DP  RH WIND       PRES   REMARKS
GLASGOW MT     LGT RAIN  50  49  96 NW18      29.85R
6HR MIN TEMP:  47; 6HR MAX TEMP:  50; 6HR PCP:  0.08;

GREAT FALLS MT MOSUNNY   59  33  37 W22G28    30.10R
6HR MIN TEMP:  43; 6HR MAX TEMP:  62;

CHEYENNE WY    MOSUNNY   58  37  45 SW15      30.05R
6HR MIN TEMP:  37; 6HR MAX TEMP:  58;

SCOTTSBLUFF NE SUNNY     66  41  40 NW9       29.98F
6HR MIN TEMP:  42; 6HR MAX TEMP:  66;

OMAHA NE       TSTM      71  68  90 VRB5      29.97R VSB 3/4
6HR MIN TEMP:  72; 6HR MAX TEMP:  84; 6HR PCP:  0.04;

DES MOINES IA  MOSUNNY   86  68  54 SE14      30.02F
6HR MIN TEMP:  69; 6HR MAX TEMP:  86;

DAVENPORT IA   CLOUDY    72  67  84 E8        30.15S HAZE
6HR MIN TEMP:  65; 6HR MAX TEMP:  72;

CHICAGO IL     CLOUDY    71  63  75 NE8       30.18F
6HR MIN TEMP:  66; 6HR MAX TEMP:  70;

EAU CLAIRE WI  CLOUDY    66  60  81 SE15      30.13F
6HR MIN TEMP:  61; 6HR MAX TEMP:  67;

LA CROSSE WI   CLOUDY    71  63  75 SE13      30.14F
6HR MIN TEMP:  65; 6HR MAX TEMP:  71;

$$

  *****  SOME NATIONAL WEATHER *****

CITY           SKY/WX    TMP DP  RH WIND       PRES   REMARKS
LA GUARDIA NY  MOSUNNY   70  44  39 N14       30.09F
6HR MIN TEMP:  59; 6HR MAX TEMP:  70; 6HR PCP: TRACE;

RALEIGH NC     MOSUNNY   89  62  40 CALM      30.05F
6HR MIN TEMP:  67; 6HR MAX TEMP:  89;

ATLANTA GA     MOSUNNY   90  64  42 CALM      30.10F HX  91
6HR MIN TEMP:  72; 6HR MAX TEMP:  90;

NEW ORLEANS LA MOSUNNY   92  74  55 NE5       30.05F HX 101
6HR MIN TEMP:  77; 6HR MAX TEMP:  92;

OKLAHOMA CITY  PTSUNNY   85  71  63 S14G24    29.99F HX  90
6HR MIN TEMP:  72; 6HR MAX TEMP:  85;

ALBUQUERQUE NM SUNNY     62  30  29 N5        30.19S
6HR MIN TEMP:  42; 6HR MAX TEMP:  62;

SALT LAKE CITY PTSUNNY   56  44  64 N13       30.25R
6HR MIN TEMP:  48; 6HR MAX TEMP:  56; 6HR PCP:  0.08;

LOS ANGELES CA SUNNY     83  35  18 CALM      30.01S
6HR MIN TEMP:  62; 6HR MAX TEMP:  83;

BOISE ID       SUNNY    C1F1C2F2C3F3C4F4C5F5C6F6C7F7C8F8C9F9CaFaCbFbCcFcCd!


USA.gov is the U.S. government's official web portal to all federal, state and local government web resources and services.